Regional Weather Roundup
Issued by NWS Charleston, SC

Current Version | Previous Version | Graphics & Text | Print | Product List | Glossary On
Versions: 1 2 3 4 5 6 7 8 9 10 11 12 13 14 15 16 17 18 19 20 21 22 23 24 25 26 27 28 29 30 31 32 33 34 35 36 37 38 39 40 41 42 43 44 45 46 47 48 49 50
595
ASUS42 KCHS 240813
RWRCHS

REGIONAL WEATHER ROUNDUP
NATIONAL WEATHER SERVICE CHARLESTON SC
400 AM EDT SUN JUL 24 2016

NOTE: "FAIR" INDICATES FEW OR NO CLOUDS BELOW 12,000 FEET WITH NO
SIGNIFICANT WEATHER AND/OR OBSTRUCTIONS TO VISIBILITY.

NOT ALL STATIONS ARE QUALITY CONTROLLED. USE DATA WITH CAUTION...
ESPECIALLY DEWPOINT OBSERVATIONS.

SCZ027-030-031-034>040-042>050-240900-
...SOUTHEAST SOUTH CAROLINA...

CITY           SKY/WX    TMP DP  RH WIND       PRES   REMARKS
N CHARLESTON   PTCLDY    80  75  84 CALM      30.01S
WATERFRONT PRK   N/A     83  78  84 VRB3      29.99S HX  93
MOUNT PLEASANT FAIR      79  77  94 CALM      30.01F
JOHNS ISLAND   FAIR      82  79  89 CALM      30.01F HX  93
PINOPOLIS        N/A     81  75  83 VRB2      29.95S
MONCKS CORNER  PTSUNNY   73  72  94 CALM      30.01F
SUMMERVILLE    NOT AVBL
BEAUFORT MCAS  CLEAR     80  76  87 S3        30.01S
BEAUFORT ARPT  FAIR      81  77  89 SW5       30.01S
HILTON HEAD IS CLEAR     82  77  83 SW6       30.01F HX  91
WALTERBORO     MOSUNNY   79  79 100 SW3       30.02F
ALLENDALE      FAIR      77  73  88 CALM      30.01S

...SOUTHERN MIDLANDS AND PEE DEE...

CITY           SKY/WX    TMP DP  RH WIND       PRES   REMARKS
GEORGETOWN     NOT AVBL
KINGSTREE      FAIR      77  72  83 CALM      30.00F
ORANGEBURG     CLEAR     77  72  84 CALM      30.00F
BARNWELL       NOT AVBL
AIKEN          FAIR      73  68  83 S3        30.05S
MANNING        FAIR      79  72  78 SW5       30.01F
COLUMBIA       CLEAR     76  72  87 CALM      29.99F
SUMTER         CLEAR     77  73  87 S6        29.98F
FLORENCE       CLEAR     78  75  90 S5        30.00F
MYRTLE BEACH   PTCLDY    81  72  74 SW5       30.03S
N MYRTLE BEACH PTCLDY    81  77  88 SW3       30.01S

$$

GAZ063-065-086>088-099>101-113>116-118-119-134>141-150-240900-
...SOUTHEAST GEORGIA...

CITY           SKY/WX    TMP DP  RH WIND       PRES   REMARKS
SAVANNAH ARPT  CLEAR     79  73  82 SW8       30.01F
HUNTER AAF     CLEAR     79  78  96 SW5       29.99F
FORT STEWART   PTCLDY    77  72  85 S2        29.99F
STATESBORO     CLEAR     75  74  99 CALM      30.01F
SYLVANIA       NOT AVBL
CLAXTON        FAIR      74  73  97 CALM      30.01F

...CSRA...CENTRAL AND FAR SOUTHEAST GEORGIA...

CITY           SKY/WX    TMP DP  RH WIND       PRES   REMARKS
THOMSON        CLEAR     76  76  98 CALM      30.05F
AUGUSTA-BUSH   CLEAR     72  71  97 CALM      30.00F
AUGUSTA-DANIEL CLEAR     78  71  79 S3        30.02F
SWAINSBORO     FAIR      73  72  94 CALM      30.02F
VIDALIA        MOCLDY    75  70  83 CALM      30.02S
EASTMAN        FAIR      75  75 100 CALM      30.03F
HAZLEHURST     FAIR      75  75 100 CALM      30.00F
ALMA           PTCLDY    73  72  96 CALM      30.00F
WAYCROSS       PTCLDY    79  76  90 CALM      30.00F
JESUP          FAIR      73  73 100 CALM      30.01F
BAXLEY         FAIR      75  75 100 CALM      30.00F
BRUNSWICK      PTCLDY    77  77 100 CALM      30.02S
SAINT SIMONS   PTCLDY    81  75  82 SW5       30.01S

$$

SCZ027-028-034-036>038-045-046-048>050-GAZ119-141-240900-
...LAKE AND SUPPLEMENTAL COASTAL OBSERVATIONS...

STATION/POSITION TIME  TEMP    WIND        PRES    WAVE   SWELL
                       AIR SEA DIR/SP/G            HT/PER HT/PER/DIR
                 (UTC) (F)     (DEG/KT/KT) (MB)    (FT/S) (FT/S/D)
WINYAH BAY       0645   80     290/  1     1016.0
LAKE MURRAY      0700   83     220/  1/  3 1015.6S
ACE BASIN NERRS  NOT AVBL
FORT PULASKI     0700   83 88  240/  5/  6 1016.9F
SAPELO ISLAND    0700   83     220/ 10     1017.0S

$$

ANZ835-935-AMZ111-154-330-350-352-354-370-450-454-472-240900-
...C-MAN AND BUOY OBSERVATIONS...

STATION/POSITION TIME  TEMP    WIND        PRES    WAVE   SWELL
                       AIR SEA DIR/SP/G            HT/PER HT/PER/DIR
                 (UTC) (F)     (DEG/KT/KT) (MB)    (FT/S) (FT/S/D)
BUOY 41004       0750   85 86  220/ 14/ 14 1015.9S   3/ 8   2/130/ 8
BUOY 41008       0750   85 86  210/ 12/ 14 1016.1F   3/ 9   2/100/ 9
FOLLY BEACH CMAN 0700   84     220/ 12/ 15 1016.3F
CAPERS NEARSHORE 0708   84 84  240/ 12/ 16 1016.3F
FRIPP NEARSHORE  0708   85 86  220/ 14/ 19 1015.5F


STATION/POSITION TIME  TEMP    WIND        PRES    WAVE   SWELL
                       AIR SEA DIR/SP/G            HT/PER HT/PER/DIR
                 (UTC) (F)     (DEG/KT/KT) (MB)    (FT/S) (FT/S/D)
5E ST. MARYS GA  0701      86                N/A     3/ 4
FRYING PAN BUOY  0700   85 85  210/ 12/ 14 1016.3S
BUOY 41025       0750   84 85  230/ 14/ 17 1016.2F   3/ 4   2/120/ 9
CAPE LOOKOUT NC  0700   82     230/  6/  8 1016.4R
BUOY 41002       0750   82 84  290/  2/  2 1016.9S   2/ 8   2/120/ 8
BUOY 41010       0720   84 87   CALM  /  2 1016.9F
ST AUGUSTINE FL  0800   77 86  230/  5/  6 1017.3F


$$




USA.gov is the U.S. government's official web portal to all federal, state and local government web resources and services.